Theta_e
322 319 321 318 303 300 296 297 304 305 306 305 307 306 311 310 310 307 316 318 328 334 338 341 345 348 348 346 347 347 346 345 344 345 346 345 344 342 340 338 339 338 335 333 333 337 333 332 331
317 318 320 313 296 293 294 301 301 304 305 306 308 315 307 306 310 311 310 315 322 331 336 340 342 347 347 347 345 345 345 344 344 344 344 344 343 342 341 338 338 337 335 333 332 334 331 331 328
317 321 311 303 298 293 294 301 302 305 306 305 305 312 308 304 309 309 312 314 319 325 330 331 339 345 346 346 344 343 345 345 345 344 343 343 343 342 341 339 340 336 335 332 334 330 328 329 330
316 314 310 297 296 299 300 300 301 302 305 306 305 303 308 311 309 310 313 313 313 320 322 328 330 335 343 345 345 343 346 344 346 345 344 343 343 342 341 340 339 339 336 334 334 332 331 330 328
317 312 299 296 297 301 301 302 301 300 300 301 303 303 306 310 311 311 310 312 311 314 318 321 327 327 331 339 343 343 343 345 345 345 343 342 341 341 341 340 339 339 336 335 333 331 330 328 327
306 305 295 293 296 300 300 301 300 299 301 301 300 300 306 309 308 308 310 310 312 312 317 319 321 324 324 327 333 340 341 342 343 344 343 342 340 340 339 340 339 338 337 335 333 332 330 328 327
304 300 294 294 295 297 299 301 299 299 299 299 302 297 305 305 307 308 308 310 311 312 313 315 317 320 321 322 324 329 336 338 339 342 341 339 338 337 338 338 338 338 336 334 333 332 330 328 326
303 299 294 292 293 294 299 300 301 300 298 303 303 297 297 304 307 308 308 308 309 310 311 311 314 318 319 320 321 322 326 334 336 336 335 333 333 332 334 332 334 337 336 335 334 331 330 327 326
307 295 292 294 294 295 300 298 302 303 299 301 303 301 304 306 307 305 304 305 307 309 311 310 311 313 316 318 320 321 323 327 330 331 330 328 331 331 330 328 330 335 334 334 333 331 329 328 327
300 295 296 299 298 297 299 298 299 299 299 298 301 304 305 304 303 302 302 302 304 305 308 310 310 311 312 316 318 320 322 323 332 332 334 332 332 331 330 326 326 330 329 331 332 332 329 325 320
300 295 298 299 302 301 299 298 301 298 296 298 296 299 302 302 301 301 302 302 303 306 307 308 309 310 310 311 314 318 320 323 326 331 332 333 332 328 328 325 325 324 322 325 327 326 323 321 318
297 300 300 301 302 301 299 300 297 297 297 300 300 301 301 300 300 300 301 301 302 303 305 307 308 309 309 310 311 312 315 320 322 328 331 331 330 330 328 326 325 324 323 322 323 321 321 319 319
297 298 301 302 301 300 301 298 297 297 298 300 302 301 299 299 300 301 302 302 302 302 304 306 307 308 309 309 309 310 311 315 320 323 329 330 330 329 328 326 325 325 322 320 319 319 320 318 318
300 300 300 301 300 300 298 297 297 299 299 299 300 298 298 299 299 300 300 300 301 303 304 306 306 307 308 307 308 308 309 311 314 321 325 329 329 328 326 324 324 324 323 321 319 319 319 318 318
301 296 297 298 299 298 299 293 294 298 299 299 296 297 297 298 299 298 300 300 301 302 303 305 306 307 306 306 306 308 309 310 311 315 321 327 329 328 326 324 323 324 324 320 319 318 318 316 317
296 295 290 297 298 298 295 288 297 298 296 296 295 295 296 297 298 298 300 300 301 301 302 303 304 305 305 305 305 306 308 309 309 311 317 325 329 327 326 324 323 324 324 321 318 317 316 315 316
293 287 290 292 298 296 294 290 297 299 297 295 294 293 295 296 297 297 299 299 300 300 301 300 303 303 305 305 305 306 307 308 309 310 313 322 328 326 324 324 323 324 324 321 318 316 316 315 316
287 286 289 287 294 294 291 292 296 298 297 294 294 292 294 294 294 296 296 301 300 300 302 302 302 304 304 304 304 305 306 307 309 308 311 319 327 325 323 323 323 323 323 320 318 316 316 316 316
292 289 287 291 295 290 290 291 294 298 297 293 294 292 292 293 295 295 296 298 300 300 300 301 300 301 303 302 301 302 302 306 308 309 311 317 326 325 323 323 323 322 321 320 319 318 317 316 317
291 287 287 290 293 290 289 289 293 296 296 295 294 292 293 294 294 294 295 295 297 297 299 301 300 301 302 302 302 303 303 306 309 312 315 318 325 325 324 323 322 322 321 319 319 319 317 317 317
289 287 284 286 291 292 289 287 290 294 296 296 295 296 295 293 292 293 294 293 294 296 299 300 300 301 301 301 302 303 305 306 307 309 314 320 325 325 324 322 322 321 321 319 319 320 318 314 316
286 291 290 289 286 280 289 276 287 290 292 294 295 294 293 291 293 293 293 292 293 296 298 300 300 300 301 301 302 303 305 306 309 311 316 321 322 324 324 323 323 322 321 319 320 321 320 318 315
289 291 289 288 285 285 281 278 285 287 287 291 293 295 292 290 291 292 292 294 295 296 298 300 299 300 300 300 303 310 309 310 315 314 315 321 322 323 323 323 322 321 320 320 320 320 318 317 314
293 290 289 287 286 276 281 280 281 283 286 289 294 294 292 290 290 292 293 294 294 295 297 298 298 298 299 299 300 305 307 309 310 312 312 313 314 319 320 320 321 320 320 316 314 314 312 311 310
290 285 278 277 274 277 284 279 282 291 292 293 293 292 290 290 289 290 290 290 292 294 295 297 297 297 298 298 298 301 304 306 306 308 309 309 309 310 312 313 312 312 312 311 310 309 309 308 307
287 285 279 274 276 277 281 277 283 292 293 293 294 292 291 289 290 289 289 290 291 294 294 296 296 296 297 297 297 298 301 303 304 305 306 307 307 307 308 308 308 308 309 308 307 306 305 305 304
286 280 286 280 276 276 280 284 288 289 289 291 291 291 288 289 288 288 289 289 290 292 293 294 296 295 296 296 296 296 297 299 300 302 303 304 304 305 305 305 305 305 304 305 304 302 301 301 300
287 289 279 279 271 274 280 279 280 285 287 290 290 290 289 288 288 288 288 289 290 292 293 294 296 294 295 296 296 296 295 296 297 298 298 298 299 300 300 300 300 300 300 299 298 297 297 296 296
283 282 284 283 281 277 276 279 285 288 290 290 290 292 289 287 287 287 288 289 290 292 292 293 294 295 294 295 295 295 295 295 296 295 295 296 296 296 296 296 295 294 294 295 294 294 294 293 293
287 285 285 279 278 279 279 279 288 290 291 292 291 293 290 288 288 287 288 288 289 290 292 292 292 293 294 295 294 294 294 294 294 293 294 294 293 294 293 293 292 292 292 293 292 292 292 291 290
Wind_Speed
16 9 5 3 2 3 8 5 6 3 3 7 8 3 6 8 5 3 6 14 14 14 16 4 8 5 5 6 7 5 5 8 11 12 11 13 12 12 11 11 9 7 7 6 6 8 11 8 6
8 6 2 4 3 5 3 5 4 10 7 7 8 7 3 7 7 5 8 14 11 12 15 12 6 8 7 7 7 7 7 8 10 11 11 10 12 13 13 12 10 10 8 7 6 6 7 9 7
8 7 2 4 5 4 3 8 9 6 6 6 6 6 6 4 10 5 9 11 8 10 12 17 18 9 8 9 9 8 8 8 9 10 12 12 12 12 13 12 11 11 10 7 8 8 6 7 6
3 3 4 3 9 5 6 8 6 5 5 5 7 2 6 7 4 7 11 11 8 7 11 11 19 22 14 9 8 10 9 10 9 10 12 12 12 11 13 12 10 10 11 10 8 10 8 6 4
3 4 4 6 9 7 8 7 3 4 3 6 6 4 8 7 9 9 10 10 8 6 7 10 16 18 18 17 10 10 11 10 10 9 9 10 12 11 13 12 10 10 11 11 12 9 7 5 3
3 2 4 7 3 8 7 7 5 3 4 4 7 9 5 13 12 10 9 9 8 7 5 6 9 12 17 16 17 12 12 12 11 9 9 10 10 13 13 11 10 11 10 12 13 12 8 5 3
3 2 6 6 4 5 5 5 6 6 7 8 5 5 3 15 11 10 9 9 8 7 7 6 4 6 10 15 16 15 15 13 13 10 10 10 11 12 12 11 10 9 12 13 14 13 9 5 3
4 2 3 1 3 4 5 4 4 5 4 3 3 4 6 12 11 9 8 8 8 8 8 8 7 2 3 7 11 16 16 14 12 12 10 10 11 11 11 10 10 11 11 12 13 14 10 6 4
2 3 5 3 1 5 5 4 5 4 5 3 3 2 7 10 11 7 6 7 7 8 7 8 7 7 6 4 5 10 12 14 12 11 11 10 5 7 9 8 10 12 12 13 15 13 11 7 5
2 3 7 7 7 5 4 2 5 5 3 1 5 11 10 10 9 8 9 9 8 9 8 9 9 7 6 6 3 5 8 8 6 8 9 7 6 6 8 9 8 11 11 12 12 14 11 8 4
2 3 5 6 8 6 4 3 3 5 4 8 6 9 9 9 9 9 8 9 10 12 8 12 13 11 7 6 4 3 3 4 6 6 9 9 7 5 6 4 5 4 7 4 6 7 4 6 5
2 4 5 4 3 2 3 5 4 2 4 4 6 6 7 8 8 8 9 9 10 11 8 9 11 11 9 6 5 5 3 3 4 6 7 8 6 7 6 4 6 5 4 6 5 4 5 6 5
0 4 2 5 2 1 3 5 4 4 3 4 5 5 7 8 9 9 8 9 11 13 12 14 11 12 10 9 6 6 7 5 4 6 7 6 7 6 7 4 4 4 4 4 5 4 3 4 3
3 5 4 3 2 3 4 4 2 6 4 6 3 5 7 8 9 8 9 8 10 12 15 15 15 13 11 9 11 9 6 8 7 4 6 7 6 7 9 4 5 4 3 4 5 4 4 4 4
3 4 4 6 4 2 3 6 9 5 3 7 2 6 5 6 6 6 7 8 9 11 13 14 15 12 13 11 9 8 9 7 8 7 6 8 7 9 9 8 6 4 3 6 5 5 4 4 3
4 3 3 7 4 4 1 6 9 6 5 6 1 3 3 5 5 5 5 6 7 9 13 14 12 12 13 10 9 8 8 8 9 6 7 8 10 13 11 8 7 8 5 5 5 4 3 3 4
4 3 5 6 5 1 6 6 7 6 5 6 4 2 2 4 5 5 5 4 5 6 10 13 14 13 14 15 13 9 10 8 7 7 8 10 11 13 11 8 7 6 4 4 5 3 4 4 3
2 3 2 3 4 5 7 14 13 10 7 7 6 3 4 3 4 5 8 6 4 5 10 13 12 15 15 10 9 8 8 8 8 9 8 13 9 13 11 9 10 7 6 4 4 5 4 4 4
5 4 5 4 6 3 8 12 9 7 9 7 8 4 3 4 5 6 7 7 7 7 10 14 15 16 12 9 8 7 7 7 7 9 12 13 9 12 11 8 10 9 8 9 5 4 5 4 3
3 3 4 5 4 2 8 16 14 8 7 8 7 2 3 5 5 6 7 8 8 8 12 15 17 16 13 9 8 7 6 6 7 7 9 13 12 13 11 11 10 10 8 8 9 6 4 3 4
4 1 3 4 6 7 8 9 2 2 1 6 5 4 3 2 5 6 7 7 8 9 13 15 17 17 14 14 10 7 7 6 7 7 6 10 13 13 11 11 11 10 8 7 6 7 6 4 3
3 4 4 4 6 3 3 8 5 3 6 7 6 6 5 2 4 5 6 7 7 9 12 15 16 16 15 17 12 8 6 6 4 6 4 8 11 11 11 12 11 12 8 10 7 5 4 3 4
2 1 2 3 4 6 1 1 8 1 5 8 8 8 6 3 3 5 6 6 6 8 12 13 15 15 17 16 15 3 3 5 5 4 6 7 7 10 8 10 10 11 8 7 7 5 4 2 4
4 2 5 3 3 1 4 4 7 5 6 4 6 7 6 4 2 4 5 6 6 7 10 12 15 16 16 16 16 13 13 10 6 7 8 6 6 4 6 7 6 6 8 9 9 9 12 10 10
3 3 3 4 2 5 4 2 11 4 7 6 8 8 7 5 3 3 5 6 7 8 9 11 15 16 15 15 15 14 14 12 14 6 11 11 9 8 8 11 10 9 12 12 13 12 12 12 12
6 2 3 4 2 3 2 7 8 4 8 5 7 8 8 5 3 4 5 5 6 7 8 11 13 15 14 14 15 14 15 10 9 13 12 11 11 11 15 15 14 13 16 15 16 12 11 13 12
5 5 1 1 2 2 6 8 2 5 4 6 7 7 7 6 5 5 5 5 5 6 7 8 12 13 14 13 13 15 14 16 14 16 14 12 14 12 16 17 17 15 15 15 16 13 12 12 10
2 1 3 3 1 5 5 5 7 7 9 8 9 9 8 8 6 5 4 4 4 6 6 8 10 10 11 13 12 13 16 16 15 14 17 18 14 15 15 16 15 13 13 15 16 12 10 12 9
4 3 3 0 3 3 4 7 2 4 12 13 10 9 9 9 7 6 5 3 4 6 6 7 8 11 11 11 12 16 15 16 15 15 15 14 13 14 15 14 13 14 14 13 15 13 11 14 10
3 6 7 5 5 3 1 10 2 5 7 9 9 8 9 10 9 8 6 4 4 6 6 7 6 7 7 10 11 11 12 13 14 14 13 12 13 13 12 12 13 13 13 14 13 13 11 12 10
Wind_Direction
302 245 249 288 252 212 255 107 38 133 85 26 309 335 64 33 13 59 17 14 358 344 333 172 174 192 209 200 177 184 208 197 188 189 181 170 166 162 155 144 133 143 139 144 133 116 121 107 127
299 270 256 276 241 243 57 75 139 52 34 342 310 354 195 88 26 62 17 350 3 348 351 357 176 194 205 218 212 202 207 217 204 199 193 194 179 171 166 154 154 141 140 143 150 161 121 132 139
261 267 263 207 227 275 63 42 35 18 74 9 341 90 15 29 58 33 356 336 356 3 354 15 5 259 211 212 224 227 217 217 220 212 202 198 203 186 172 163 159 149 150 145 147 140 148 141 120
262 186 262 273 263 66 55 68 24 326 143 100 7 78 95 60 53 20 347 333 343 27 5 7 3 11 333 232 234 236 226 223 224 223 211 207 201 195 178 170 171 163 159 154 132 124 124 130 132
243 256 259 217 258 106 81 46 334 316 349 32 346 26 115 91 48 14 347 335 338 8 30 359 14 7 356 353 253 246 240 234 225 220 223 214 195 191 179 169 176 157 159 146 136 128 132 133 129
272 278 260 238 155 89 89 34 311 312 32 40 24 336 87 82 28 1 341 332 331 344 42 22 3 8 355 349 6 289 241 235 226 221 219 212 193 181 183 175 180 168 162 152 138 140 138 140 135
259 244 266 338 99 130 85 2 32 4 290 65 6 299 106 27 16 350 334 328 324 357 14 355 25 3 352 346 350 349 310 238 230 214 203 204 194 191 178 176 183 176 161 153 138 134 139 150 154
302 317 289 59 0 97 71 330 53 28 56 356 22 27 328 358 359 340 334 333 346 360 3 349 328 343 4 332 332 340 329 286 233 221 203 197 195 194 181 183 181 163 164 150 147 138 144 163 163
287 283 255 95 88 91 107 344 129 145 272 84 76 334 4 354 342 332 338 344 347 348 350 329 336 343 337 314 323 321 323 308 254 215 207 204 191 183 182 190 184 167 165 151 151 145 151 154 174
262 281 27 12 40 46 79 336 9 325 261 191 22 360 351 345 320 339 346 339 333 332 342 337 343 328 334 320 289 281 293 298 268 220 205 202 189 180 188 183 180 172 164 163 161 154 152 165 211
65 357 98 59 34 354 28 258 66 326 272 48 335 321 335 319 347 347 341 330 347 337 339 343 331 331 326 312 303 250 244 263 299 247 216 197 194 179 185 168 171 158 150 159 162 148 160 195 215
173 24 2 93 43 326 344 340 274 114 27 1 295 326 317 345 344 339 334 352 337 317 327 331 322 319 318 322 308 292 283 245 257 292 255 225 197 177 162 163 153 156 164 169 169 169 195 221 188
231 117 80 75 151 308 319 256 301 224 127 290 290 323 352 346 347 345 342 345 334 330 326 324 325 325 322 321 308 309 313 300 247 259 288 226 210 181 158 151 139 151 166 174 161 180 230 168 127
50 140 131 176 170 226 285 309 88 194 121 280 304 359 22 3 358 349 355 340 336 327 325 319 317 316 321 322 315 299 281 292 289 256 255 249 207 168 153 157 134 146 199 167 156 179 212 161 175
130 165 201 199 184 285 344 251 216 125 201 273 20 45 13 27 2 2 351 349 343 331 326 325 318 318 316 307 302 300 292 278 292 295 252 250 200 163 173 152 159 192 185 166 160 185 173 156 194
220 269 231 118 166 139 312 295 184 142 239 279 298 82 350 348 13 1 347 3 337 333 323 318 314 316 303 295 291 289 281 282 275 280 285 245 190 179 173 173 173 172 192 191 157 169 165 169 175
204 291 201 161 186 31 201 292 131 172 242 267 274 125 292 297 323 338 350 31 348 336 308 310 311 307 298 307 301 283 281 271 258 270 275 269 197 167 158 160 132 189 158 217 151 154 155 184 205
282 227 182 277 150 214 258 259 272 187 208 252 261 215 248 311 347 343 347 344 14 334 320 322 311 310 314 307 291 286 275 270 251 251 253 261 189 174 157 164 180 178 163 170 146 160 183 176 189
314 327 298 327 106 292 246 261 257 212 187 222 248 211 283 338 332 2 350 344 345 338 324 327 319 320 314 305 292 277 266 263 252 246 241 255 183 177 171 170 178 149 174 160 183 166 174 200 157
349 21 310 284 81 237 284 282 267 235 209 200 237 262 296 330 339 349 350 347 345 338 329 328 328 320 316 304 293 272 266 271 254 258 233 238 185 181 183 166 160 165 161 162 184 186 158 169 159
167 167 260 275 318 244 311 282 349 56 159 188 226 238 247 310 352 346 356 344 340 340 333 333 329 326 325 315 297 276 254 245 253 255 260 217 187 170 177 172 169 169 168 175 172 169 164 162 159
283 51 186 300 357 297 54 285 292 244 199 223 232 223 210 47 17 352 353 349 346 341 328 338 336 335 334 323 304 252 257 268 246 239 223 197 179 168 173 169 166 172 176 166 179 151 163 151 155
101 67 279 328 288 323 80 66 271 167 251 225 215 205 149 99 34 351 357 0 355 343 341 342 343 346 345 345 347 358 251 254 286 243 184 155 167 165 161 170 171 169 171 154 151 150 127 93 76
96 233 206 263 239 309 205 145 279 200 212 205 202 158 144 143 70 38 19 10 358 346 344 349 354 355 357 354 2 19 28 23 21 68 82 76 74 123 132 141 138 151 147 122 104 114 102 98 86
239 266 325 342 4 234 190 203 248 222 170 178 168 159 151 140 91 46 23 16 7 359 348 358 360 2 1 2 14 12 39 32 39 25 77 76 69 66 73 78 76 92 94 94 94 87 86 96 87
197 323 180 235 283 301 62 240 258 58 144 118 119 139 135 171 135 84 48 35 20 11 360 358 5 5 4 12 18 22 44 41 51 52 66 71 75 68 78 78 78 81 92 96 89 82 78 77 79
152 215 8 64 52 14 221 256 148 108 149 156 172 157 177 176 136 101 74 52 34 26 22 6 8 10 11 18 26 35 37 49 45 50 59 65 72 75 77 77 78 73 72 77 86 77 78 76 79
335 23 96 332 196 264 282 270 240 209 208 192 201 192 181 153 143 123 88 61 46 47 32 29 17 24 12 25 32 42 47 45 46 51 53 55 58 62 65 68 69 66 73 79 75 77 75 79 66
163 227 206 27 199 209 301 263 286 248 183 189 193 188 169 154 155 133 113 98 74 64 51 47 28 26 19 18 34 45 43 50 49 51 51 51 60 62 63 68 71 68 66 72 79 75 75 78 76
285 214 176 152 224 236 95 272 335 53 142 161 177 176 156 148 145 142 132 126 97 83 66 67 43 28 34 20 31 46 58 54 57 58 63 59 60 57 63 68 70 68 65 68 75 77 71 80 77